Regional Weather Roundup
Issued by NWS Upton, NY

Current Version | Previous Version | Text Only | Print | Product List | Glossary On
Versions: 1 2 3 4 5 6 7 8 9 10 11 12 13 14 15 16 17 18 19 20 21 22 23 24 25 26 27 28 29 30 31 32 33 34 35 36 37 38 39 40 41 42 43 44 45 46 47 48 49 50
000
ASUS41 KOKX 271105
RWROKX

REGIONAL WEATHER ROUNDUP
NATIONAL WEATHER SERVICE NEW YORK NY
700 AM EDT SUN JUL 27 2014

NOTE: "FAIR" INDICATES FEW OR NO CLOUDS BELOW 12,000 FEET WITH NO
SIGNIFICANT WEATHER AND/OR OBSTRUCTIONS TO VISIBILITY.

NYZ071-072-176-178-NJZ106-104-271200-
NEW YORK CITY METRO AREA


CITY           SKY/WX    TMP DP  RH WIND       PRES   REMARKS
CENTRAL PARK   PTSUNNY   72  69  90 CALM      29.84F
LAGUARDIA APRT PTSUNNY   73  67  81 S8        29.81F
KENNEDY INTL   LGT RAIN  73  69  87 S7        29.83F
NEWARK/LIBERTY CLOUDY    72  69  90 S5        29.81F
BRNX BOT. GARD   N/A     70  68  94 SE2       29.82S
TETERBORO      PTSUNNY   73  68  84 S6        29.80F
$$

NYZ177-179-078>081-271200-
LONG ISLAND NEW YORK

CITY           SKY/WX    TMP DP  RH WIND       PRES   REMARKS
FARMINGDALE    CLOUDY    71  70  96 S9        29.84S
ISLIP          CLOUDY    74  70  87 S10       29.82F
SHIRLEY        CLOUDY    72  69  90 S9        29.85F
WESTHAMPTON    CLOUDY    72  68  87 S9G16     29.86S
MONTAUK POINT    N/A     72  68  87 S9        29.87S
$$

NYZ052-065-067-271200-
HUDSON VALLEY

CITY           SKY/WX    TMP DP  RH WIND       PRES   REMARKS
WHITE PLAINS   PTSUNNY   69  68  96 CALM      29.82F FOG
NEWBURGH       CLOUDY    70  68  94 SE5       29.81F
MONTGOMERY     LGT RAIN  66  64  93 CALM      29.79F FOG
POUGHKEEPSIE   PTSUNNY   73  67  81 S8        29.78S
ALBANY         CLOUDY    70  66  87 S10       29.74S
$$

NJZ001-105-106-008-010-013-015-019>022-104-271200-
NEW JERSEY

CITY           SKY/WX    TMP DP  RH WIND       PRES   REMARKS
NEWARK/LIBERTY CLOUDY    72  69  90 S5        29.81F
TETERBORO      PTSUNNY   73  68  84 S6        29.80F
CALDWELL       LGT RAIN  70  67  90 S3        29.81F
MORRISTOWN     LGT RAIN  72  70  94 SE5       29.81F
SOMERVILLE     CLOUDY    70  68  93 CALM      29.79F FOG
LINDEN         PTSUNNY   73  69  88 S3        29.82F
SUSSEX         CLOUDY    70  66  87 SW3       29.80F FOG
ANDOVER          N/A     71  68  90 VRB5      29.81F
TRENTON        CLOUDY    70  68  93 S6        29.80F
MILLVILLE      CLOUDY    73  71  93 SW3       29.83R
ATLANTIC CITY  CLOUDY    73  72  96 S6        29.82S
WRIGHTSTOWN    CLOUDY    70  69  99 VRB2      29.80S
TOMS RIVER     CLOUDY    72  70  94 CALM      29.82F
BELMAR         CLOUDY    72  66  83 S5        29.83F
$$

PAZ047>061-062-071-271200-
EASTERN PENNSYLVANIA

CITY           SKY/WX    TMP DP  RH WIND       PRES   REMARKS
PHILADELPHIA   CLOUDY    74  69  85 S8        29.81F
ALLENTOWN      CLOUDY    72  70  94 SW5       29.81S FOG
SCRANTON       MOSUNNY   71  63  75 S7        29.78F
$$

CTZ002-004>006-009-010-012-RIZ004-006-007-MAZ004-011-015-271200-
SOUTHERN NEW ENGLAND
 IN CT

CITY           SKY/WX    TMP DP  RH WIND       PRES   REMARKS
BRADLEY INTL   PTSUNNY   72  67  84 S10       29.81F
HARTFORD       CLOUDY    72  68  87 S8        29.82S
DANBURY        CLOUDY    69  65  86 S8        29.84S FOG
WTRBRY/OXFORD  FOG       68  64  88 S7        29.86S VSB 1
BRIDGEPORT     MOSUNNY   73  70  90 SW10      29.83S
MERIDEN        CLOUDY    71  68  90 S6        29.83S
NEW HAVEN      PTSUNNY   75  70  84 S5        29.83F
CHESTER        CLOUDY    70  70 100 SW8       29.86S
GROTON         CLOUDY    69  68  96 SW3       29.84S
WILLIMANTIC    CLOUDY    70  67  90 SE5       29.84F

 IN RI

CITY           SKY/WX    TMP DP  RH WIND       PRES   REMARKS
PROVIDENCE     PTSUNNY   70  67  90 S7        29.85F
BLOCK ISLAND   MOSUNNY   72  66  83 S12       29.87S
WESTERLY       SUNNY     72  67  84 S9        29.86S

 IN MA

CITY           SKY/WX    TMP DP  RH WIND       PRES   REMARKS
BOSTON         PTSUNNY   69  66  90 S8        29.84S
WORCESTER      FOG       66  65  96 SW7       29.86F VSB 1
WESTFIELD      CLOUDY    69  66  90 S7        29.81F HAZE
PROVINCETOWN   SUNNY     70  64  83 S9        29.87S
NANTUCKET      SUNNY     68  66  93 S7        29.89S
$$

ANZ330-335-338-340-345-350-353-355-271200-
COASTAL MARINE OBSERVATIONS


STATION/POSITION TIME  SKY/WX   TEMP    WIND        PRES    VSBY  WAVE
                                AIR SEA DIR/SP/G                  HT/PER
                 (UTC)          (F)     (DEG/KT/KT) (MB)    (MI)  (FT/S)
NY HARB ENTRANCE NOT AVBL
4S FIRE IS       NOT AVBL
23SW MTP         1100            73 71              1010.7          3/ 7
HUDSON CANYON    1100            74 74  190/ 12/ 12 1011.5          2/ 7
EXECUTION ROCKS  1100            72 71  190/ 10/ 12   N/A
WESTERN LI SOUND 1100            72     190/ 10/ 12   N/A           0
CENTRAL LI SOUND 1000            72 71  200/ 14/ 17   N/A           1/ 2
EASTERN LI SOUND 1000            71 68  200/  8/ 10   N/A
ROBBINS REEF     1100            72     180/ 10/ 11   N/A
$$


>>>>>>>>>>>>>>>>>>>>>>>>>>>> KEY <<<<<<<<<<<<<<<<<<<<<<<<<<<
>                                                          <
>     SKY/WX - SKY CONDITION/PRESENT WEATHER               <
>     TMP    - TEMPERATURE IN FAHRENHEIT                   <
>     DP     - DEWPOINT IN FAHRENHEIT                      <
>     RH     - RELATIVE HUMIDITY IN PERCENT                <
>     WIND   - DIRECTION AND SPEED IN MPH                  <
>     PRES   - MEAN SEA LEVEL PRESSURE IN INCHES OF HG     <
>     WCI    - WIND CHILL INDEX                            <
>     VSB    - VISIBILITY IN MILES                         <
>     HX     - HEAT INDEX                                  <
>     TC     - TEMPERATURE IN CELSIUS                      <
>     VRB    - VARIABLE WIND DIRECTION                     <
>                                                          <
>>>>>>>>>>>>>>>>>>>>>>>>>>>> KEY <<<<<<<<<<<<<<<<<<<<<<<<<<<





USA.gov is the U.S. government's official web portal to all federal, state and local government web resources and services.